Simultaneous Nadir Overpasses (SNOs) Predictions

Prediction of SNOs between FY3D and AQUA Satellite Orbit:

Table of predicted SNOs for the next 14.0 days since TLE Epoch: 2/11/2023
Index Date (FY3D) Time (FY3D) Lat,Lon (FY3D) SZA (FY3D ) Date (AQUA) Time (AQUA) Lat,Lon (AQUA) SZA (AQUA ) Distance(km) Time Diff (sec)
1 02/12/2023 20:29:33 78.01,-144.21 92.23 02/12/2023 20:29:41 78.00,-144.10 92.21 2.60 8
2 02/12/2023 21:19:58 -77.15, 27.21 88.87 02/12/2023 21:18:47 -77.16, 27.09 88.83 2.95 71
3 02/15/2023 10:15:24 -78.30,-172.24 88.25 02/15/2023 10:16:28 -78.29,-172.15 88.29 2.15 64
4 02/15/2023 11:05:54 77.66, -1.55 90.90 02/15/2023 11:05:40 77.67, -1.64 90.92 2.55 14
5 02/18/2023 00:51:46 -78.05, -29.96 89.49 02/18/2023 00:52:26 -78.06, -30.03 89.50 1.71 40
6 02/18/2023 01:42:20 77.57, 139.82 89.87 02/18/2023 01:41:41 77.57, 139.80 89.89 0.63 39
7 02/20/2023 15:28:14 -78.01, 111.19 90.48 02/20/2023 15:28:27 -78.00, 111.25 90.50 1.60 13
8 02/20/2023 16:18:47 77.48, -78.85 88.83 02/20/2023 16:17:41 77.47, -78.77 88.83 2.12 66
9 02/23/2023 05:14:03 78.23, 83.56 88.88 02/23/2023 05:15:08 78.24, 83.48 88.87 2.06 65



Historial Predications of SNOs between FY3D and AQUA
